Lorain / Elyria, OH

7:08 PM EDT on July 23, 2017 (GMT -0400)
Lorain County Regional

Weather History for KLPR - December, 2012

Change the Weather History Date:

Thursday, December 6, 2012

  Actual Average (KCLE) Record (KCLE)
Temperature  
Mean Temperature 34 °F -  
Max Temperature 41 °F 42 °F 70 °F (1998)
Min Temperature 28 °F 27 °F 7 °F (1977)
Degree Days  
Heating Degree Days 30    
Moisture  
Dew Point 26 °F    
Average Humidity 72    
Maximum Humidity 86    
Minimum Humidity 57    
Precipitation  
Precipitation 0.00 in - - ()
Sea Level Pressure  
Sea Level Pressure 30.21 in    
Wind  
Wind Speed 3 mph (SSE)    
Max Wind Speed 13 mph    
Max Gust Speed -    
Visibility 10 miles    
Events      
Averages and records for this station are not official NWS values.
T = Trace of Precipitation, MM = Missing Value Source: NWS Daily Summary

Daily Weather History Graph

Daily Weather History Graph

Search for Another Location

Airport or City:

Trip Planner

Search our weather history database for the weather conditions in past years. The results will help you decide how hot, cold, wet, or windy it might be!

Date:

Astronomy

Dec. 06, 2012 Rise Set
Actual Time 7:40 AM EST 4:59 PM EST
Civil Twilight 7:09 AM EST 5:30 PM EST
Nautical Twilight 6:35 AM EST 6:04 PM EST
Astronomical Twilight 6:01 AM EST 6:38 PM EST
Moon No Moon Rise 12:28 PM EST (12/6)
Length of Visible Light 10h 20m
Length of Day
9h 18m
Waning Gibbous, 49% of the Moon is Illuminated
Dec 6
Waning Gibbous
Dec 13
New
Dec 20
First Quarter
Dec 28
Full
Jan 4
Last Quarter

Hourly Weather History & Observations

Time (EST) Temp. Windchill Dew Point Humidity Pressure Visibility Wind Dir Wind Speed Gust Speed Precip Events Conditions
12:02 AM 33.8 °F - 24.8 °F 70% 30.35 in 10.0 mi Calm Calm - N/A   Scattered Clouds
12:53 AM 30.9 °F - 24.1 °F 76% 30.37 in 10.0 mi Calm Calm - N/A   Partly Cloudy
1:05 AM 32.0 °F - 24.8 °F 75% 30.34 in 10.0 mi Calm Calm - N/A   Mostly Cloudy
1:53 AM 30.9 °F - 25.0 °F 79% 30.36 in 10.0 mi Calm Calm - N/A   Overcast
2:24 AM 30.2 °F - 24.8 °F 80% 30.34 in 10.0 mi Calm Calm - N/A   Scattered Clouds
2:53 AM 30.0 °F - 24.1 °F 79% 30.36 in 10.0 mi Calm Calm - N/A   Scattered Clouds
3:01 AM 28.4 °F - 24.8 °F 86% 30.33 in 10.0 mi Calm Calm - N/A   Mostly Cloudy
3:33 AM 28.4 °F 22.2 °F 23.0 °F 80% 30.31 in 10.0 mi SSE 5.8 mph - N/A   Scattered Clouds
3:53 AM 28.9 °F 22.8 °F 24.1 °F 82% 30.33 in 10.0 mi SE 5.8 mph - N/A   Clear
4:53 AM 28.9 °F 23.9 °F 23.0 °F 78% 30.32 in 10.0 mi SE 4.6 mph - N/A   Clear
5:53 AM 28.9 °F 23.9 °F 23.0 °F 78% 30.32 in 10.0 mi East 4.6 mph - N/A   Clear
7:53 AM 28.0 °F 20.8 °F 23.0 °F 81% 30.30 in 10.0 mi SSE 6.9 mph - N/A   Clear
8:53 AM 30.0 °F 24.1 °F 24.1 °F 79% 30.29 in 10.0 mi SSE 5.8 mph - N/A   Clear
9:53 AM 32.0 °F 23.0 °F 24.1 °F 73% 30.25 in 10.0 mi SSE 11.5 mph - N/A   Clear
10:53 AM 35.1 °F 27.4 °F 25.0 °F 67% 30.22 in 10.0 mi SSE 10.4 mph - N/A   Clear
11:53 AM 36.0 °F 27.5 °F 26.1 °F 67% 30.18 in 10.0 mi South 12.7 mph - N/A   Clear
12:53 PM 37.9 °F 31.5 °F 27.0 °F 65% 30.15 in 10.0 mi South 9.2 mph - N/A   Clear
1:53 PM 41.0 °F 35.2 °F 27.0 °F 57% 30.14 in 10.0 mi SSW 9.2 mph - N/A   Clear
2:53 PM 41.0 °F 37.1 °F 28.0 °F 60% 30.11 in 10.0 mi South 5.8 mph - N/A   Clear
3:53 PM 41.0 °F 38.0 °F 27.0 °F 57% 30.10 in 10.0 mi South 4.6 mph - N/A   Clear
4:53 PM 39.0 °F - 27.0 °F 62% 30.10 in 10.0 mi Calm Calm - N/A   Clear
5:53 PM 37.0 °F 33.3 °F 28.0 °F 70% 30.09 in 10.0 mi ESE 4.6 mph - N/A   Clear
6:53 PM 36.0 °F 32.1 °F 27.0 °F 70% 30.08 in 10.0 mi SSE 4.6 mph - N/A   Clear
7:53 PM 37.0 °F 33.3 °F 28.0 °F 70% 30.08 in 10.0 mi South 4.6 mph - N/A   Clear
8:53 PM 37.9 °F 33.5 °F 28.0 °F 68% 30.06 in 10.0 mi South 5.8 mph - N/A   Clear
9:53 PM 37.9 °F 33.5 °F 28.0 °F 68% 30.02 in 10.0 mi South 5.8 mph - N/A   Clear
10:53 PM 37.9 °F 33.5 °F 28.0 °F 68% 30.02 in 10.0 mi South 5.8 mph - N/A   Partly Cloudy
11:53 PM 37.9 °F 33.5 °F 28.9 °F 70% 30.01 in 10.0 mi South 5.8 mph - N/A   Mostly Cloudy